Date,TemperatureHighF,TemperatureAvgF,TemperatureLowF,DewpointHighF,DewpointAvgF,DewpointLowF,HumidityHigh,HumidityAvg,HumidityLow,PressureMaxIn,PressureMinIn,WindSpeedMaxMPH,WindSpeedAvgMPH,GustSpeedMaxMPH,PrecipitationSumIn
2013-4-11,37.1,35.3,34.2,35.0,34.0,33.0,96,94,89,29.98,29.62,17,11,29,0.78
2013-4-12,41.8,36.9,32.7,38.0,34.9,32.0,97,92,80,29.70,29.50,11,4,16,0.39
2013-4-13,40.1,37.4,33.4,38.0,31.1,26.0,97,79,60,29.94,29.70,16,7,26,0.11
2013-4-14,46.9,38.6,30.3,38.0,32.0,28.0,91,77,65,30.07,29.88,14,4,18,0.00
2013-4-15,67.0,55.8,41.0,55.0,46.2,34.0,89,71,58,29.88,29.79,16,7,22,0.01
2013-4-16,57.8,50.0,43.5,55.0,42.1,35.0,96,76,47,30.19,29.80,11,4,19,0.17
2013-4-17,55.8,45.4,38.2,43.0,36.5,32.0,94,72,51,30.31,29.98,22,7,22,0.57
2013-4-18,74.4,57.4,43.6,64.0,54.0,41.0,97,89,68,29.95,29.47,17,7,37,0.83
2013-4-19,59.0,43.2,32.2,58.0,38.2,29.0,95,83,63,29.68,29.28,26,10,31,0.93
2013-4-20,36.6,32.2,27.7,30.0,22.3,17.0,87,67,57,30.41,29.67,20,6,22,0.00
2013-4-21,48.3,36.8,25.0,31.0,25.6,23.0,92,66,42,30.59,30.41,12,5,16,0.00
2013-4-22,61.3,47.1,32.1,36.0,30.2,23.0,86,55,29,30.42,30.14,12,5,16,0.00
2013-4-23,66.7,54.6,43.1,53.0,41.9,34.0,95,65,44,30.13,29.76,11,6,25,0.34
2013-4-24,45.8,38.1,33.6,45.0,33.6,26.0,96,85,58,30.07,29.74,12,4,16,0.45
2013-4-25,50.0,41.1,35.0,40.0,31.1,27.0,90,69,46,30.29,30.02,19,5,25,0.06
2013-4-26,58.9,46.6,31.3,37.0,32.1,28.0,89,60,40,30.40,30.26,14,4,21,0.00
2013-4-27,69.2,56.5,43.7,44.0,37.5,33.0,74,52,28,30.29,30.05,15,4,18,0.00
2013-4-28,60.4,53.5,49.5,52.0,45.4,35.0,98,76,56,30.04,29.79,12,4,17,0.12
2013-4-29,69.5,59.3,51.6,55.0,52.7,51.0,99,81,54,29.87,29.78,6,2,11,0.00
2013-4-30,72.3,62.2,55.3,57.0,54.3,52.0,93,76,55,29.99,29.84,15,6,24,0.33
2013-5-1,80.3,69.7,59.1,59.0,54.9,53.0,80,61,40,30.15,29.98,13,5,20,0.00
2013-5-2,77.6,67.4,56.9,56.0,51.7,47.0,77,59,41,30.16,30.04,13,6,19,0.00
2013-5-3,76.0,66.9,56.5,57.0,46.1,36.0,61,48,27,30.06,29.98,15,6,21,0.00
2013-5-4,71.3,63.5,53.8,49.0,42.5,34.0,65,48,26,30.05,29.99,18,6,19,0.00
2013-5-5,73.0,60.5,47.4,47.0,39.2,29.0,78,50,20,30.05,29.96,14,4,22,0.00
2013-5-6,76.8,60.9,43.2,48.0,41.2,35.0,85,53,27,30.01,29.90,12,3,17,0.00
2013-5-7,77.7,63.9,47.0,53.0,46.4,38.0,85,55,34,30.00,29.92,12,3,16,0.00
2013-5-8,80.5,66.2,49.4,54.0,47.8,42.0,91,56,27,29.96,29.86,6,2,13,0.00
2013-5-9,80.1,67.7,53.0,56.0,50.3,46.0,88,57,31,29.90,29.81,6,2,14,0.00
2013-5-10,66.8,49.7,41.0,57.0,46.9,40.0,97,91,60,29.84,29.69,12,4,18,0.39
2013-5-11,60.6,45.9,37.4,48.0,41.2,33.0,96,85,56,29.84,29.65,13,4,23,0.01
2013-5-12,45.8,39.0,30.7,35.0,29.9,24.0,88,71,55,30.05,29.80,17,6,20,0.00
2013-5-13,53.5,41.6,29.3,32.0,26.3,23.0,83,58,32,30.14,30.05,10,3,14,0.02
2013-5-14,74.8,56.8,42.6,53.0,38.8,29.0,70,52,37,30.05,29.64,16,5,20,0.00
2013-5-15,77.9,68.4,55.0,58.0,49.9,44.0,78,54,34,29.72,29.48,11,5,19,0.00
2013-5-16,79.7,64.7,50.3,50.0,44.2,38.0,81,51,27,29.98,29.72,11,3,16,0.00
2013-5-17,67.8,57.4,44.6,45.0,41.4,38.0,79,57,40,30.10,29.98,12,5,16,0.00
2013-5-18,80.7,65.9,53.1,48.0,44.6,42.0,75,49,27,30.10,29.96,13,4,18,0.00
2013-5-19,86.0,71.8,51.8,62.0,53.2,44.0,82,54,38,29.97,29.79,8,3,14,0.00
2013-5-20,89.5,74.1,64.6,68.0,63.6,60.0,95,72,42,29.84,29.66,20,5,23,0.04
2013-5-21,81.9,73.7,67.0,65.0,62.1,59.0,91,69,48,29.73,29.62,12,4,24,0.00
2013-5-22,76.9,68.0,62.2,65.0,62.4,60.0,94,83,57,29.65,29.53,12,3,21,0.00
2013-5-23,61.8,49.8,41.5,60.0,48.3,40.0,97,94,90,30.11,29.60,12,5,20,0.41
2013-5-24,54.8,45.0,38.4,43.0,38.4,35.0,98,79,57,30.33,30.11,9,2,15,0.00
2013-5-25,61.7,50.0,35.6,45.0,38.8,31.0,96,69,34,30.37,30.24,10,2,15,0.00
2013-5-26,65.9,53.2,36.0,43.0,37.9,33.0,97,61,32,30.31,30.18,10,2,13,0.00
2013-5-27,66.1,53.5,41.9,49.0,41.1,31.0,94,66,34,30.21,29.96,13,4,18,0.00
2013-5-28,70.8,60.2,51.1,69.0,59.1,50.0,98,96,91,29.95,29.72,11,3,14,1.86
2013-5-29,78.3,74.8,69.3,68.0,66.4,65.0,95,75,67,29.90,29.75,12,4,19,0.71
2013-5-30,85.0,75.0,67.0,73.0,66.9,62.0,92,77,56,29.95,29.85,19,4,29,0.05
2013-5-31,78.0,73.4,68.8,69.0,66.3,64.0,90,78,64,29.89,29.75,17,5,23,0.04
2013-6-1,77.5,70.2,63.8,67.0,64.1,62.0,95,81,65,29.78,29.60,14,5,22,0.09
2013-6-2,67.4,60.7,49.4,63.0,54.6,42.0,89,80,72,29.94,29.55,11,4,17,0.00
2013-6-3,66.3,52.8,38.7,48.0,42.3,37.0,96,70,44,30.03,29.95,6,1,11,0.00
2013-6-4,69.2,58.1,45.9,49.0,45.1,42.0,91,65,38,30.15,30.03,7,2,10,0.00
2013-6-5,69.3,59.4,52.4,52.0,44.3,37.0,79,59,36,30.13,29.95,11,4,16,0.02
2013-6-6,66.5,58.8,54.4,55.0,49.8,46.0,82,73,64,29.97,29.82,12,6,19,0.04
2013-6-7,62.5,55.1,49.0,53.0,50.4,47.0,94,85,69,29.88,29.82,10,3,15,0.00
2013-6-8,71.0,61.5,50.4,56.0,52.7,49.0,95,74,51,30.01,29.86,5,1,9,0.00
2013-6-9,75.4,66.3,56.1,59.0,54.8,52.0,91,68,52,30.05,29.88,12,4,20,0.00
2013-6-10,71.3,65.1,59.0,67.0,61.6,51.0,97,89,57,29.88,29.66,10,3,11,0.76
2013-6-11,78.6,68.9,61.3,68.0,64.0,61.0,99,85,66,29.82,29.72,7,2,11,0.02
2013-6-12,74.2,67.9,59.5,68.0,64.3,59.0,98,88,74,29.85,29.57,10,1,13,0.04
2013-6-13,75.0,67.7,61.0,65.0,60.6,57.0,98,80,55,29.86,29.53,11,3,17,0.85
2013-6-14,73.1,64.4,57.2,60.0,54.3,50.0,95,71,45,30.03,29.86,9,2,15,0.02
2013-6-15,75.0,66.4,57.5,64.0,58.0,49.0,87,75,60,30.00,29.83,8,3,14,0.00
2013-6-16,79.1,69.8,63.4,67.0,61.9,55.0,96,77,49,29.83,29.68,13,4,16,0.24
2013-6-17,66.3,62.5,60.7,61.0,59.6,59.0,93,90,76,29.88,29.80,6,4,12,0.07
2013-6-18,68.6,60.7,52.5,59.0,49.6,42.0,95,70,43,30.03,29.84,13,6,18,0.03
2013-6-19,74.2,60.4,43.2,55.0,46.8,42.0,95,64,38,30.13,30.03,8,2,11,0.00
2013-6-20,80.6,67.1,54.1,57.0,53.3,49.0,91,64,35,30.14,30.07,6,2,10,0.00
2013-6-21,83.3,72.2,57.1,67.0,59.6,53.0,87,66,49,30.13,29.96,10,3,15,0.00
2013-6-22,87.3,76.8,65.4,73.0,66.6,58.0,93,72,52,29.99,29.88,8,3,13,0.02
2013-6-23,88.3,79.1,69.9,71.0,68.0,64.0,95,71,45,29.95,29.86,15,4,18,0.00
2013-6-24,86.3,76.3,68.7,71.0,67.9,65.0,95,76,55,29.95,29.82,19,4,22,0.15
2013-6-25,78.9,71.0,66.2,71.0,67.5,64.0,96,89,73,29.88,29.75,11,3,14,0.34
2013-6-26,82.6,73.8,64.6,73.0,68.2,64.0,97,83,67,29.79,29.66,7,2,12,0.00
2013-6-27,83.6,71.8,65.2,72.0,67.4,64.0,97,87,64,29.68,29.56,8,2,15,0.25
2013-6-28,75.4,67.3,64.3,67.0,64.5,63.0,99,91,70,29.58,29.45,8,2,12,0.09
2013-6-29,71.6,66.8,62.2,63.0,60.9,58.0,97,82,67,29.68,29.48,10,3,15,0.01
2013-6-30,77.6,67.3,56.6,64.0,58.0,46.0,93,73,50,29.90,29.68,11,3,15,0.00
2013-7-1,69.8,61.5,54.9,59.0,52.0,47.0,82,72,56,30.03,29.91,13,4,17,0.02
2013-7-2,74.9,64.9,56.3,62.0,57.1,51.0,90,77,60,30.02,29.97,13,4,13,0.00
2013-7-3,82.2,71.1,58.4,69.0,62.9,56.0,94,77,55,30.02,29.96,9,2,12,0.00
2013-7-4,78.8,71.3,65.2,66.0,62.4,57.0,93,75,50,30.05,29.98,9,2,12,0.00
2013-7-5,83.0,73.7,64.2,67.0,63.1,60.0,93,71,49,30.04,29.96,5,1,8,0.00
2013-7-6,84.5,75.4,67.3,71.0,67.6,66.0,94,78,55,30.02,29.89,8,2,9,0.00
2013-7-7,80.8,73.1,68.6,72.0,69.0,67.0,97,87,68,29.95,29.86,6,2,9,0.31
2013-7-8,80.9,73.9,68.9,75.0,69.7,67.0,94,87,78,29.93,29.87,8,2,12,0.04
2013-7-9,86.6,74.9,67.4,74.0,70.1,66.0,97,86,60,29.90,29.78,11,2,20,0.07
2013-7-10,86.0,76.4,62.4,74.0,68.6,57.0,97,78,55,29.87,29.67,10,3,15,0.00
2013-7-11,76.0,66.1,55.2,61.0,57.2,54.0,97,75,51,30.01,29.87,8,2,12,0.00
2013-7-12,80.4,66.4,51.8,64.0,57.9,51.0,98,77,47,30.11,30.01,8,2,10,0.00
2013-7-13,83.2,72.1,56.3,65.0,59.4,53.0,98,68,37,30.13,30.08,7,2,11,0.00
2013-7-14,88.9,76.9,61.7,72.0,67.1,61.0,98,74,49,30.18,30.13,5,1,12,0.00
2013-7-15,90.0,78.0,68.0,76.0,72.0,67.0,98,83,59,30.21,30.14,8,1,16,0.46
2013-7-16,91.2,81.2,72.9,79.0,74.2,72.0,98,81,56,30.22,30.14,6,1,10,0.00
2013-7-17,92.3,82.3,72.0,78.0,73.7,70.0,94,76,57,30.18,30.05,8,2,15,0.00
2013-7-18,91.7,82.3,72.5,77.0,73.8,70.0,94,76,57,30.07,29.85,11,2,16,0.00
2013-7-19,92.1,83.6,75.8,76.0,72.2,65.0,90,70,50,29.85,29.60,21,5,22,0.00
2013-7-20,85.3,76.0,65.4,71.0,64.6,57.0,92,70,41,29.85,29.62,7,2,11,0.00
2013-7-21,80.7,69.7,58.3,64.0,58.5,54.0,90,69,50,29.94,29.85,6,2,10,0.00
2013-7-22,81.1,72.3,64.6,70.0,64.5,60.0,93,77,56,29.89,29.68,8,2,12,0.00
2013-7-23,79.2,69.4,59.6,72.0,63.9,50.0,95,83,60,29.82,29.58,7,2,14,0.26
2013-7-24,71.2,61.2,49.5,54.0,50.7,47.0,90,70,52,29.99,29.82,8,2,12,0.00
2013-7-25,76.1,63.2,47.6,57.0,52.5,47.0,98,72,42,30.06,29.98,5,1,10,0.00
2013-7-26,77.8,67.8,58.1,63.0,58.5,54.0,89,73,55,30.03,29.84,9,3,15,0.03
2013-7-27,76.7,65.3,55.8,66.0,60.7,48.0,96,86,63,29.83,29.65,9,3,15,0.26
2013-7-28,65.0,56.3,49.1,57.0,52.0,47.0,95,85,67,29.90,29.75,11,3,17,0.13
2013-7-29,68.7,60.2,55.0,58.0,55.4,53.0,94,85,67,30.11,29.89,6,2,12,0.04
2013-7-30,77.0,64.4,48.7,63.0,56.6,48.0,98,78,50,30.17,30.04,5,1,9,0.00
2013-7-31,66.6,64.3,61.5,65.0,62.8,59.0,98,94,87,30.05,29.83,4,1,8,0.44
2013-8-1,75.8,66.5,58.6,65.0,61.0,55.0,98,84,57,29.85,29.80,8,2,12,0.19
2013-8-2,72.5,64.4,55.1,64.0,59.5,54.0,95,84,67,29.85,29.75,9,3,16,0.00
2013-8-3,75.8,66.0,54.8,63.0,57.2,53.0,98,76,48,29.99,29.83,5,1,12,0.00
2013-8-4,71.5,61.6,53.1,58.0,54.5,51.0,93,78,55,30.10,29.99,5,2,11,0.00
2013-8-5,69.1,61.6,53.9,62.0,54.7,51.0,92,79,59,30.05,29.89,5,2,11,0.00
2013-8-6,77.0,68.1,62.0,70.0,63.7,57.0,95,86,74,29.89,29.80,8,3,15,0.04
2013-8-7,82.6,71.8,61.6,72.0,67.2,61.0,98,86,66,29.84,29.71,10,3,17,0.51
2013-8-8,74.8,66.6,57.7,66.0,59.5,55.0,95,79,52,29.95,29.83,7,2,11,0.00
2013-8-9,79.3,67.3,52.7,61.0,57.7,52.0,98,74,48,29.93,29.86,7,2,13,0.00
2013-8-10,75.9,65.6,54.2,60.0,56.8,53.0,97,76,50,30.07,29.94,4,1,13,0.00
2013-8-11,77.4,67.0,58.0,63.0,59.0,56.0,94,77,50,30.05,29.96,5,1,10,0.00
2013-8-12,69.4,64.6,58.4,67.0,63.0,57.0,98,94,87,29.99,29.77,6,2,11,0.04
2013-8-13,68.4,59.9,52.9,63.0,51.1,45.0,98,75,47,30.00,29.78,9,2,13,0.00
2013-8-14,70.7,57.5,45.7,54.0,49.0,44.0,94,75,46,30.11,30.00,5,2,11,0.00
2013-8-15,72.4,59.4,45.4,57.0,51.9,44.0,98,78,52,30.11,30.01,9,2,13,0.00
2013-8-16,78.5,64.1,47.8,59.0,53.9,47.0,98,73,41,30.13,30.04,4,1,9,0.00
2013-8-17,80.0,65.4,49.1,62.0,54.5,48.0,98,72,36,30.20,30.12,5,1,14,0.00
2013-8-18,81.1,66.0,49.9,63.0,56.9,49.0,98,76,46,30.17,30.03,3,1,8,0.00
2013-8-19,81.7,67.9,53.5,64.0,58.4,52.0,98,75,42,30.05,29.95,6,1,11,0.00
2013-8-20,84.7,71.4,58.6,68.0,62.4,57.0,95,75,50,30.06,29.98,10,2,12,0.00
2013-8-21,86.6,74.9,65.3,70.0,65.7,63.0,91,74,51,30.03,29.90,9,3,17,0.00
2013-8-22,82.1,73.6,66.1,69.0,66.7,64.0,94,80,58,29.98,29.82,6,2,22,0.08
2013-8-23,79.8,66.8,53.6,63.0,57.9,53.0,98,75,48,30.14,29.98,7,2,11,0.00
2013-8-24,82.1,67.3,50.5,62.0,56.6,49.0,98,72,42,30.25,30.14,5,1,9,0.00
2013-8-25,86.4,72.8,59.9,67.0,62.5,57.0,94,72,51,30.21,30.05,9,3,14,0.00
2013-8-26,85.8,75.5,67.2,72.0,67.0,62.0,91,75,61,30.06,29.89,13,3,15,0.00
2013-8-27,81.1,73.9,69.2,76.0,71.5,68.0,98,92,82,29.92,29.74,12,2,14,1.19
2013-8-28,81.2,73.2,64.9,74.0,70.4,64.0,99,91,70,29.94,29.71,5,1,12,0.01
2013-8-29,86.5,72.2,62.3,74.0,67.0,62.0,99,85,55,30.02,29.91,5,1,8,0.00
2013-8-30,84.7,75.8,67.5,73.0,69.6,64.0,98,82,61,29.92,29.64,11,3,17,0.02
2013-8-31,76.7,70.8,64.3,71.0,66.3,63.0,97,86,69,29.78,29.68,8,2,11,0.00
2013-9-1,78.7,67.6,60.9,72.0,65.7,60.0,99,94,78,29.78,29.64,8,1,8,0.12
2013-9-2,71.0,65.3,56.7,68.0,60.2,53.0,98,84,65,29.86,29.65,8,2,12,0.00
2013-9-3,74.4,63.4,56.6,58.0,54.1,52.0,86,73,48,29.95,29.85,8,2,13,0.00
2013-9-4,80.1,66.2,52.3,66.0,58.9,51.0,97,79,56,30.02,29.92,10,2,17,0.01
2013-9-5,69.1,57.6,46.8,61.0,48.8,44.0,95,75,46,30.20,30.02,7,2,14,0.00
2013-9-6,75.4,59.6,44.6,56.0,50.4,43.0,98,75,45,30.23,30.00,7,2,10,0.00
2013-9-7,76.3,67.1,58.6,70.0,61.3,51.0,94,82,70,30.00,29.81,8,2,10,0.08
2013-9-8,72.3,66.6,54.0,67.0,57.6,49.0,95,75,50,30.03,29.85,14,4,18,0.00
2013-9-9,77.8,64.3,49.2,71.0,60.8,48.0,97,88,77,30.00,29.80,8,2,11,0.04
2013-9-10,92.9,80.9,70.8,73.0,69.3,65.0,92,70,41,29.91,29.78,12,4,16,0.00
2013-9-11,88.8,77.6,68.9,72.0,68.0,65.0,87,73,53,29.92,29.84,8,3,13,0.00
2013-9-12,77.2,66.1,55.2,65.0,58.6,45.0,98,79,47,29.90,29.78,7,2,13,0.12
2013-9-13,57.9,51.9,40.4,46.0,43.5,38.0,95,74,50,30.09,29.90,8,2,14,0.00
2013-9-14,68.3,51.7,35.3,46.0,41.3,35.0,98,72,37,30.15,30.03,7,2,15,0.00
2013-9-15,60.7,54.2,49.1,54.0,48.8,44.0,98,82,66,30.08,30.00,7,2,8,0.08
2013-9-16,61.1,52.8,41.2,54.0,47.8,39.0,98,84,55,30.34,30.08,10,2,13,0.04
2013-9-17,68.7,50.3,32.8,51.0,43.2,32.0,98,79,52,30.37,30.17,9,1,13,0.00
2013-9-18,76.8,59.2,40.6,57.0,50.1,39.0,98,75,45,30.18,29.96,8,2,17,0.00
2013-9-19,79.9,69.0,60.5,68.0,62.9,57.0,92,81,66,29.97,29.80,9,3,16,0.00
2013-9-20,77.0,70.4,65.7,71.0,67.1,64.0,96,89,77,29.80,29.64,9,3,15,0.05
2013-9-21,67.5,60.3,52.5,65.0,53.6,44.0,96,80,53,29.82,29.60,8,2,17,0.01
2013-9-22,57.4,50.4,42.8,45.0,41.9,39.0,91,73,53,30.04,29.82,8,2,11,0.00
2013-9-23,60.0,48.0,34.8,45.0,41.3,34.0,98,80,56,30.15,30.05,7,1,13,0.00
2013-9-24,69.0,51.8,36.2,50.0,43.7,36.0,99,77,47,30.11,29.95,7,1,12,0.00
2013-9-25,72.6,54.2,38.7,54.0,46.0,38.0,99,78,37,29.97,29.90,10,1,12,0.00
2013-9-26,77.2,56.0,40.9,55.0,47.3,40.0,99,78,36,30.08,29.95,8,1,9,0.00
2013-9-27,78.2,59.3,41.3,56.0,49.3,41.0,99,74,40,30.18,30.08,7,1,10,0.00
2013-9-28,76.7,62.8,46.7,61.0,53.7,46.0,99,75,46,30.13,29.93,12,3,18,0.01
2013-9-29,63.7,59.9,52.0,60.0,56.2,51.0,98,88,72,29.93,29.86,7,2,11,0.18
2013-9-30,69.8,58.7,52.1,56.0,52.8,49.0,99,83,51,29.96,29.85,7,1,11,0.01
2013-10-1,74.2,61.6,53.3,63.0,57.2,51.0,98,86,65,29.93,29.83,12,4,23,0.00
2013-10-2,77.9,64.0,49.8,60.0,50.2,39.0,99,68,25,30.02,29.85,7,1,10,0.00
2013-10-3,80.0,65.5,49.1,66.0,58.3,45.0,93,78,60,30.00,29.83,13,3,18,0.00
2013-10-4,78.1,69.8,64.5,68.0,65.1,63.0,96,85,68,29.95,29.84,9,2,11,0.04
2013-10-5,72.5,66.7,62.5,69.0,64.9,61.0,99,94,85,29.96,29.77,9,2,13,0.30
2013-10-6,69.8,64.2,53.1,67.0,61.9,52.0,97,92,81,29.77,29.57,11,4,18,0.34
2013-10-7,60.0,51.2,45.5,53.0,46.7,43.0,97,85,61,30.04,29.60,12,4,21,0.04
2013-10-8,67.4,53.7,39.5,50.0,45.1,39.0,98,75,47,30.22,30.05,11,3,16,0.00
2013-10-9,70.1,55.8,44.5,53.0,47.2,43.0,98,76,48,30.26,30.15,9,2,12,0.00
2013-10-10,71.6,54.6,40.0,57.0,45.0,39.0,99,74,39,30.17,30.07,5,1,13,0.01
2013-10-11,73.3,55.0,38.0,53.0,43.8,37.0,98,71,33,30.10,30.01,10,1,11,0.00
2013-10-12,76.1,60.9,45.1,61.0,52.7,44.0,99,77,51,30.04,29.95,14,3,18,0.00
2013-10-13,65.4,57.5,44.9,58.0,47.0,40.0,93,70,42,30.30,30.02,13,2,13,0.00
2013-10-14,62.0,49.2,36.9,45.0,41.0,36.0,98,76,44,30.37,30.23,9,2,12,0.00
2013-10-15,65.1,52.0,36.8,59.0,48.9,36.0,98,89,72,30.23,29.75,13,4,20,0.17
2013-10-16,61.1,53.7,50.4,60.0,50.2,46.0,95,88,74,29.82,29.72,10,4,17,0.01
2013-10-17,51.2,49.0,44.5,50.0,48.0,43.0,98,96,93,29.82,29.67,8,3,14,0.38
2013-10-18,61.5,49.3,41.8,46.0,42.4,39.0,97,80,46,29.84,29.76,11,4,18,0.01
2013-10-19,51.4,44.6,39.7,43.0,40.8,37.0,96,87,59,29.82,29.66,9,3,14,0.15
2013-10-20,56.1,47.4,39.6,44.0,40.5,38.0,94,78,55,29.85,29.73,11,4,19,0.03
2013-10-21,55.2,49.5,40.9,49.0,43.0,35.0,93,79,64,29.78,29.73,14,5,20,0.12
2013-10-22,47.7,40.5,32.7,36.0,31.1,28.0,84,70,54,29.84,29.78,10,4,19,0.00
2013-10-23,46.9,38.7,31.9,36.0,32.0,27.0,93,78,49,29.88,29.78,8,2,15,0.00
2013-10-24,44.5,36.6,30.8,34.0,30.9,29.0,95,81,59,30.12,29.87,9,3,15,0.00
2013-10-25,46.0,37.9,30.9,36.0,30.5,28.0,95,76,56,30.27,30.00,10,4,19,0.01
2013-10-26,51.1,42.8,36.4,41.0,33.2,28.0,95,70,56,29.98,29.67,15,6,24,0.13
2013-10-27,51.5,40.5,32.0,36.0,32.3,30.0,91,74,51,30.01,29.91,10,2,15,0.00
2013-10-28,46.4,39.8,33.1,38.0,33.3,29.0,90,78,66,30.38,29.98,10,4,16,0.00
2013-10-29,45.8,40.5,37.0,37.0,32.9,30.0,81,75,67,30.40,30.20,7,3,10,0.00
2013-10-30,62.6,47.0,30.7,51.0,40.6,30.0,98,80,56,30.19,29.89,8,2,12,0.00
2013-10-31,61.0,58.6,53.0,60.0,57.3,51.0,97,95,91,29.89,29.04,15,6,19,1.05
2013-11-1,61.0,48.6,44.6,59.0,44.4,41.0,95,85,75,29.59,29.01,17,7,34,0.12
2013-11-2,45.1,41.7,34.8,44.0,39.8,33.0,97,93,85,30.07,29.58,9,3,14,0.13
2013-11-3,43.1,36.7,28.9,38.0,32.5,28.0,97,85,70,30.40,30.07,9,2,11,0.00
2013-11-4,48.5,40.5,29.6,36.0,31.0,27.0,91,71,44,30.42,30.22,17,6,20,0.00
2013-11-5,55.1,50.5,45.3,47.0,43.7,36.0,85,77,71,30.28,30.08,9,4,16,0.00
2013-11-6,54.9,51.3,40.8,53.0,46.9,38.0,95,85,64,30.07,29.67,18,7,30,0.37
2013-11-7,43.2,38.4,34.3,38.0,31.5,27.0,92,77,55,30.07,29.93,14,4,16,0.02
2013-11-8,44.1,35.9,29.5,31.0,27.8,26.0,90,73,50,30.23,30.06,7,2,12,0.00
2013-11-9,52.5,45.9,36.6,42.0,35.8,30.0,76,68,59,30.11,29.72,17,8,25,0.00
2013-11-10,46.9,40.8,33.9,36.0,31.8,28.0,83,71,54,30.21,29.84,14,5,21,0.01
2013-11-11,41.6,35.0,26.7,38.0,30.5,22.0,94,83,73,30.28,29.98,11,4,13,0.16
2013-11-12,32.4,26.3,21.7,24.0,19.3,17.0,88,76,58,30.51,30.29,10,3,19,0.02
2013-11-13,39.7,29.4,19.5,25.0,19.2,14.0,89,68,41,30.50,30.09,14,6,24,0.00
2013-11-14,50.2,39.8,31.6,29.0,23.4,19.0,62,53,43,30.10,29.88,21,7,23,0.00
2013-11-15,52.1,44.0,37.7,30.0,27.6,25.0,67,53,42,29.99,29.91,10,4,15,0.00
2013-11-16,55.8,47.0,36.5,53.0,41.7,29.0,92,82,67,30.02,29.70,21,7,25,0.03
2013-11-17,62.2,56.2,43.0,59.0,53.6,40.0,96,90,81,29.70,29.10,43,10,43,0.98
2013-11-18,45.2,38.5,34.1,41.0,30.7,25.0,85,74,68,30.07,29.36,19,9,30,0.00
2013-11-19,40.1,33.2,27.6,26.0,24.4,23.0,86,71,54,30.37,30.08,10,2,13,0.00
2013-11-20,44.9,34.1,25.2,33.0,27.3,23.0,94,78,49,30.40,30.18,15,4,19,0.00
2013-11-21,49.2,43.8,37.9,43.0,37.7,29.0,96,80,64,30.23,30.11,11,4,15,0.14
2013-11-22,43.9,37.1,25.9,43.0,34.7,23.0,98,91,77,30.31,30.07,10,3,16,0.05
2013-11-23,27.1,23.0,16.5,24.0,17.0,10.0,91,78,57,30.48,30.22,14,6,21,0.00
2013-11-24,24.0,18.3,13.6,15.0,11.1,8.0,85,74,57,30.56,30.35,11,4,15,0.00
2013-11-25,31.9,25.4,19.0,26.0,15.0,7.0,90,66,43,30.35,30.01,23,7,24,0.00
2013-11-26,31.6,29.9,27.0,29.0,27.1,24.0,93,89,85,30.04,29.90,10,4,15,0.00
2013-11-27,26.9,21.4,16.1,24.0,14.4,10.0,90,75,56,30.16,29.91,11,4,17,0.00
2013-11-28,27.0,20.9,12.8,21.0,16.5,10.0,92,83,62,30.40,30.16,10,2,12,0.00
2013-11-29,31.2,24.8,20.2,24.0,20.6,18.0,94,84,68,30.63,30.40,8,1,9,0.01
2013-11-30,44.1,34.8,25.7,30.0,26.1,21.0,85,71,56,30.50,30.03,13,5,17,0.00
2013-12-1,39.7,35.7,31.2,34.0,31.0,29.0,92,83,67,30.03,29.96,6,2,9,0.00
2013-12-2,37.4,31.5,26.2,29.0,26.3,23.0,93,81,59,29.96,29.85,5,1,9,0.00
2013-12-3,36.2,31.7,24.1,35.0,29.1,22.0,96,90,81,29.88,29.79,10,3,13,0.06
2013-12-4,56.5,44.3,35.1,54.0,42.9,34.0,98,94,89,29.84,29.52,14,4,19,0.13
2013-12-5,57.5,39.7,28.7,55.0,33.2,21.0,93,78,67,30.08,29.52,13,6,24,0.02
2013-12-6,28.6,23.5,18.9,22.0,16.5,12.0,79,74,71,30.37,30.08,9,4,14,0.00
2013-12-7,22.7,17.7,9.9,14.0,9.9,7.0,86,72,58,30.59,30.38,11,3,14,0.00
2013-12-8,26.0,17.4,8.3,24.0,13.0,6.0,93,83,66,30.57,29.96,11,4,16,0.00
2013-12-9,28.7,25.4,17.6,27.0,21.1,10.0,95,84,68,30.04,29.82,17,6,25,0.00
2013-12-10,20.0,15.4,7.2,16.0,9.1,2.0,89,77,49,30.14,29.89,16,5,25,0.00
2013-12-11,19.0,14.8,5.1,16.0,9.7,0.0,90,80,66,30.42,30.14,9,3,14,0.00
2013-12-12,19.5,11.8,-0.7,15.0,6.7,-4.0,90,80,58,30.42,30.13,15,5,22,0.00
2013-12-13,24.9,22.7,19.8,21.0,17.7,15.0,87,81,72,30.27,30.11,10,4,15,0.00
2013-12-14,20.4,18.8,15.5,19.0,16.4,13.0,93,90,82,30.26,29.81,16,8,21,0.00
2013-12-15,22.2,17.4,11.4,21.0,13.7,5.0,94,85,72,29.99,29.77,14,4,22,0.00
2013-12-16,20.4,11.0,-0.7,11.0,5.1,-4.0,90,78,58,30.17,29.98,11,2,13,0.03
2013-12-17,27.9,21.5,13.7,25.0,18.8,11.0,92,89,81,30.00,29.83,12,4,19,0.00
2013-12-18,28.3,25.8,23.0,25.0,20.4,14.0,94,80,65,30.06,29.81,13,5,18,0.01
2013-12-19,38.7,33.2,27.2,33.0,28.0,19.0,96,81,63,29.96,29.79,10,4,17,0.03
2013-12-20,33.0,32.2,31.4,32.0,31.4,30.0,97,97,95,29.87,29.70,9,4,12,0.28
2013-12-21,32.0,31.3,30.6,31.0,30.7,30.0,98,97,95,29.83,29.66,8,2,12,0.16
2013-12-22,32.1,31.7,31.5,31.0,31.0,31.0,97,96,95,29.66,29.54,2,0,6,0.00
2013-12-23,26.4,23.4,18.1,23.0,21.1,15.0,94,90,87,30.26,30.16,13,3,16,0.00
2013-12-24,18.0,10.4,2.9,16.0,7.5,0.0,93,88,79,30.51,30.26,9,2,12,0.00
2013-12-25,22.9,17.7,10.0,22.0,15.2,8.0,94,90,86,30.48,30.07,16,6,19,0.00
2013-12-26,25.1,23.3,21.7,24.0,20.9,17.0,95,90,81,30.23,29.99,11,4,18,0.00
2013-12-27,38.0,29.8,24.8,32.0,27.6,22.0,95,91,79,30.28,29.97,12,3,18,0.01
2013-12-28,45.6,39.2,30.4,35.0,32.1,28.0,92,76,64,30.05,29.81,12,5,19,0.01
2013-12-29,40.8,32.5,17.5,32.0,25.8,12.0,94,77,67,29.99,29.65,10,4,15,0.00
2013-12-30,17.5,15.9,12.8,12.0,8.0,4.0,83,71,64,30.25,29.99,9,3,13,0.00
2013-12-31,16.9,14.4,10.8,13.0,9.8,6.0,90,82,69,30.31,30.03,13,5,19,0.00
2014-1-1,13.2,10.8,8.7,10.0,5.5,1.0,89,79,65,30.40,30.26,13,5,20,0.00
2014-1-2,12.9,9.8,0.9,10.0,6.0,-4.0,88,84,77,30.29,30.13,18,7,21,0.00